Location: Bas-Clignon
(44.2000°N, 6.6333°E)
Time: 02:01:10
(UTC+00:00)

CZ-4 R/B - Pass Details

Date: 03 February 2023
Orbit: 526 x 587 km, 97.7° (Epoch: 27 March)

Event Time Altitude Azimuth Distance (km) Brightness Sun altitude
Rises 18:03:04 0° 146° (SE) 2,800 4.7 -14.2°
Reaches altitude 10° 18:05:20 10° 138° (SE) 1,898 3.7 -14.6°
Maximum altitude 18:09:07 37° 71° (ENE) 914 1.9 -15.2°
Drops below altitude 10° 18:12:53 10° 4° (N) 1,884 3.9 -15.9°
Sets 18:15:08 0° 356° (N) 2,776 4.9 -16.3°
